SCP
0 0 0 0 0 0 0 0 0 0 0 0 0 0 0 0 0 0 0 1 1 0 1 1 1 2 2 1 1 1 1 1 1 1 1 1 0 0 1 1 1 0 0
0 0 1 0 0 0 0 0 0 0 1 0 0 0 0 0 0 0 0 0 1 0 1 1 1 1 2 2 2 1 2 1 1 1 1 1 0 0 1 1 0 0 0
0 0 0 0 0 0 1 1 1 2 1 1 1 0 0 0 0 0 0 0 0 0 0 1 1 1 1 2 2 1 1 1 1 1 1 1 1 1 1 1 0 0 0
0 2 1 1 1 2 2 2 1 2 1 1 1 1 0 0 0 0 1 2 1 0 0 1 1 2 2 2 1 1 2 2 1 1 1 1 1 1 1 1 0 0 0
1 1 2 1 3 5 5 5 4 3 3 2 1 1 1 1 0 0 0 1 1 1 2 2 1 2 2 2 2 1 2 2 1 1 1 1 2 2 2 1 0 0 0
3 3 2 3 4 4 4 4 4 3 3 2 2 1 2 2 3 2 1 1 1 2 1 2 2 1 1 2 1 1 2 1 1 1 2 2 2 1 1 0 0 0 0
5 5 4 4 4 5 4 4 3 4 3 2 1 2 2 2 1 2 0 0 0 1 1 0 0 0 1 1 1 1 1 1 1 1 1 1 1 1 1 0 0 0 0
9 7 6 4 3 4 3 4 4 3 3 2 3 2 2 2 2 1 0 0 0 0 0 0 0 1 1 2 1 1 1 1 1 1 1 1 1 1 0 0 0 0 0
10 9 8 5 3 4 4 4 3 2 2 2 3 2 2 1 1 1 0 0 0 1 0 0 1 3 3 3 1 0 0 0 0 0 0 0 1 1 1 0 -0 -0 0
9 7 5 4 3 3 2 4 4 3 3 3 2 3 2 2 1 0 1 1 1 1 1 1 2 2 2 1 0 0 0 0 0 0 0 1 0 1 0 0 -0 0 0
6 5 4 3 2 3 2 3 3 3 4 3 2 2 2 2 1 1 1 1 1 2 2 2 2 1 0 0 0 0 0 0 0 0 0 0 1 0 0 -0 0 0 0
4 3 3 3 2 2 3 3 3 3 3 2 2 2 1 2 2 1 1 1 1 1 1 1 2 1 1 0 0 0 0 0 0 0 0 0 0 0 1 -0 0 0 0
3 3 3 2 2 3 3 3 3 2 2 2 2 2 2 2 1 1 1 1 2 2 1 1 1 0 1 0 0 0 0 0 0 0 0 0 0 0 0 0 0 0 0
5 5 3 3 3 2 3 2 2 2 2 2 2 2 2 2 1 1 2 1 1 1 1 1 1 0 0 1 0 0 0 0 0 0 0 0 0 -0 0 0 0 0 0
3 3 3 2 2 1 1 1 1 1 2 1 1 2 2 2 2 1 2 1 1 1 1 1 1 1 1 0 0 0 0 0 0 0 0 0 0 0 0 0 0 -0 0
1 1 1 1 1 1 1 1 1 1 1 1 1 1 1 1 1 1 1 1 1 1 0 1 0 0 0 0 0 0 -0 0 0 -0 -0 0 0 0 -0 0 0 0 0
1 0 0 0 0 0 0 0 0 0 0 0 0 0 0 0 0 1 1 1 1 1 0 0 0 0 0 0 0 0 0 0 1 0 0 0 0 0 0 0 0 0 0
0 0 0 0 0 0 0 0 0 0 0 0 0 0 0 0 0 0 0 0 0 0 0 0 0 0 0 0 1 1 1 1 1 1 0 0 0 0 0 0 0 0 0
0 0 0 0 0 0 0 0 0 0 0 0 0 0 0 0 0 0 0 0 0 0 0 0 0 0 0 0 0 1 1 1 1 1 0 0 0 0 0 0 0 0 0
0 0 0 0 0 0 0 0 0 0 0 0 0 0 0 0 0 0 0 0 0 0 0 0 0 0 0 0 0 0 0 0 1 1 0 0 1 0 0 0 0 0 0
0 0 0 0 0 0 0 0 0 0 0 0 0 0 0 0 0 0 0 0 0 0 0 0 0 0 0 0 0 0 0 0 0 0 0 0 0 0 0 0 0 0 0
0 0 0 0 0 0 0 0 0 0 0 0 0 0 0 0 0 0 0 0 0 0 0 0 0 0 0 0 0 0 0 0 0 0 0 0 0 0 0 0 0 0 0
0 0 0 0 0 0 0 0 0 0 0 0 0 0 0 0 0 0 0 0 0 0 0 0 0 0 0 0 0 0 0 0 0 0 0 0 0 0 0 0 0 0 0
0 0 0 0 0 0 0 0 0 0 0 0 0 0 0 0 0 0 0 0 0 0 0 0 0 0 0 0 0 0 0 0 0 0 0 0 0 0 0 0 0 0 0
0 0 0 0 0 0 0 0 0 0 0 0 0 0 0 0 0 0 0 0 0 0 -0 -0 -0 0 0 0 0 0 0 0 0 0 0 0 0 0 0 0 0 0 0
0 0 0 0 0 0 0 0 0 0 0 0 0 0 0 0 0 0 0 0 0 0 0 0 0 0 0 0 0 0 0 0 0 0 0 0 0 0 0 0 0 0 0
Wind_Speed_500mb
40 39 29 33 32 26 19 21 17 23 31 24 23 30 35 37 40 43 46 45 48 47 50 49 46 47 44 45 46 45 46 46 45 49 45 48 46 42 41 41 41 39 39
41 40 39 40 42 31 28 27 28 23 32 34 35 36 39 39 41 43 44 41 43 47 49 48 42 41 45 48 50 50 50 52 49 49 49 52 52 50 49 47 45 44 42
43 43 38 33 37 36 37 38 38 25 29 39 42 44 41 42 45 45 45 41 36 44 46 49 46 39 34 41 49 52 53 51 50 46 48 53 55 57 54 52 49 49 52
43 42 43 37 30 31 31 35 37 41 40 34 37 36 36 34 36 42 37 36 52 44 44 34 29 35 41 44 43 43 45 51 54 56 47 47 49 58 58 54 43 50 58
38 53 45 44 38 39 39 37 36 39 41 41 41 44 45 46 43 36 37 46 37 39 43 54 52 49 52 53 52 48 57 58 52 50 48 58 58 67 74 60 57 49 51
45 38 50 39 35 48 51 48 51 47 47 46 38 37 38 40 35 34 38 45 35 32 46 49 56 58 61 65 77 81 70 72 72 70 73 67 57 56 56 38 34 37 40
45 44 40 40 48 44 44 37 38 39 45 41 40 46 52 55 52 61 70 68 57 53 52 63 59 52 63 60 63 54 44 48 52 56 53 49 44 49 44 40 33 44 44
52 49 48 40 37 44 38 38 49 47 48 42 39 40 45 38 40 45 53 42 44 41 43 41 47 43 53 56 49 39 55 49 53 51 51 46 47 49 44 42 41 42 46
59 56 54 46 43 49 52 41 40 42 45 39 39 36 18 21 25 39 46 50 47 42 44 43 36 30 42 51 48 58 47 45 41 31 31 30 30 35 45 31 40 41 39
65 54 53 48 47 52 34 34 38 37 38 43 38 44 46 46 43 37 49 35 35 43 46 42 37 37 49 53 58 62 53 57 50 30 22 8 17 8 15 21 20 27 27
45 48 46 39 43 37 35 31 33 34 34 38 39 34 43 47 47 48 46 47 39 25 26 35 37 42 49 53 58 60 56 42 31 36 31 6 10 13 12 17 25 27 26
37 35 38 30 33 33 32 31 31 33 31 35 38 40 44 45 49 41 49 49 47 51 42 42 48 52 61 60 45 46 39 37 39 36 37 19 22 13 22 22 18 18 19
26 25 26 21 19 22 24 28 30 33 31 36 35 34 38 41 41 39 40 41 45 49 54 44 55 52 39 34 32 24 35 43 45 45 33 18 25 28 26 21 18 14 15
22 29 29 25 26 28 26 26 22 24 28 30 34 40 45 44 48 53 48 46 50 48 49 45 39 41 41 36 32 29 32 31 23 17 17 15 20 20 21 22 25 26 25
31 30 26 30 28 28 28 26 24 23 29 33 35 39 37 39 41 35 34 35 34 32 41 42 37 32 42 44 28 26 29 29 33 24 16 15 18 25 28 32 31 33 33
18 19 23 21 13 8 5 5 9 16 20 21 23 25 28 32 32 33 34 35 31 34 38 46 47 44 30 28 38 21 21 29 35 34 38 44 50 44 44 41 39 41 41
17 11 20 16 11 6 7 7 9 9 13 17 18 21 22 23 25 27 28 27 29 31 38 47 46 49 55 59 59 59 42 40 44 53 46 50 53 74 64 52 54 52 53
28 26 18 12 7 11 18 15 13 14 14 18 22 23 31 31 31 32 23 28 25 23 32 44 49 51 55 46 39 38 42 48 59 62 63 57 55 59 72 79 72 69 66
24 16 9 3 3 5 4 17 29 28 27 26 25 28 34 35 33 33 38 39 39 40 39 40 43 41 43 45 49 52 52 48 47 48 46 50 63 72 75 72 75 77 81
13 5 5 6 11 10 16 26 35 34 35 35 31 29 31 32 35 35 41 50 50 46 44 44 45 43 42 42 44 42 38 30 36 42 47 48 43 44 51 56 63 74 74
7 4 6 7 12 19 21 30 39 46 49 43 32 19 24 31 38 40 38 38 42 43 41 36 37 37 36 42 44 49 55 56 58 44 37 34 28 29 38 49 58 64 70
6 7 11 12 13 29 34 42 48 51 43 28 14 21 19 26 23 25 30 36 37 35 38 38 40 43 47 47 53 60 64 68 76 75 74 74 63 65 58 48 34 33 28
16 18 18 18 23 29 36 42 39 18 18 16 16 22 23 37 38 33 33 37 33 24 30 36 41 45 52 51 50 53 57 62 69 74 74 86 80 88 87 83 74 60 48
15 14 14 8 18 23 29 28 17 13 18 21 22 26 22 23 29 36 47 44 31 28 24 32 36 43 46 48 49 51 54 58 63 63 52 62 61 66 60 64 78 89 77
17 10 5 8 16 18 15 15 18 24 27 23 24 19 19 25 34 43 41 33 23 17 20 28 29 31 34 39 44 51 55 60 71 73 64 60 58 57 59 57 46 42 47
8 3 6 10 14 16 18 20 22 19 15 11 18 22 21 25 36 39 32 33 30 29 30 29 30 30 35 38 40 44 47 54 60 66 39 31 43 50 55 48 44 39 40
Wind_Direction_500mb
191 211 220 222 257 269 296 268 289 268 275 289 285 265 265 262 260 256 257 265 274 289 287 287 294 278 270 266 266 268 274 276 274 266 267 272 272 270 266 264 261 260 258
194 216 221 219 215 232 255 270 264 260 254 264 265 274 275 272 266 264 263 263 267 277 281 285 290 297 276 272 270 271 271 273 273 268 265 269 272 274 269 262 260 255 255
201 220 227 233 222 227 224 236 234 238 241 248 255 259 262 262 271 274 280 281 272 278 279 284 272 283 286 282 274 273 273 272 271 269 269 273 276 273 268 261 260 260 259
212 221 219 227 236 230 238 246 249 251 258 265 266 264 264 272 275 281 285 266 279 286 279 290 289 280 277 276 278 279 278 276 272 267 257 273 277 273 268 263 269 264 264
237 212 224 222 219 233 226 225 228 235 241 245 254 261 270 275 282 279 289 282 261 275 275 286 281 274 272 271 274 278 285 273 271 268 259 279 271 282 268 264 280 271 262
245 242 221 217 232 243 240 242 242 241 253 267 269 270 267 266 270 261 261 262 271 264 284 267 270 278 278 279 282 282 280 275 273 268 271 270 267 266 265 257 265 263 261
242 238 239 227 230 243 251 249 258 257 257 260 270 268 266 266 265 266 263 274 285 299 272 271 280 290 291 294 293 293 288 287 278 271 267 257 254 264 246 267 262 267 261
236 233 237 241 240 245 250 246 241 250 260 265 258 267 281 282 276 265 274 286 292 292 294 293 282 295 296 299 288 280 285 283 286 271 259 254 263 261 263 262 260 252 254
239 240 246 243 233 240 232 239 251 258 262 259 253 260 264 262 283 288 289 289 285 290 261 265 264 274 279 277 283 292 276 281 275 270 273 270 263 260 257 249 262 257 253
236 247 255 250 238 253 250 247 250 255 256 261 263 258 267 268 273 290 294 298 285 296 280 297 279 274 273 269 276 290 277 289 275 245 233 240 270 262 244 240 252 252 249
240 252 247 242 239 246 250 252 255 256 262 267 267 273 281 279 277 271 280 290 297 288 294 284 290 294 291 287 288 292 285 273 229 219 209 171 264 297 306 278 252 245 243
223 228 233 240 240 243 254 249 257 263 271 266 265 268 273 278 280 288 281 280 285 284 281 286 296 294 293 298 307 293 278 256 238 235 226 213 248 265 277 275 248 235 229
220 218 218 229 244 251 255 255 263 268 277 272 276 279 281 278 280 285 292 289 282 285 286 280 286 286 294 307 305 300 266 262 253 259 257 233 239 257 266 251 247 249 252
201 202 208 213 233 238 242 252 255 257 263 272 279 282 282 283 283 283 293 299 297 291 290 287 303 291 295 292 293 302 275 255 230 215 219 237 245 260 256 262 254 248 254
174 185 210 234 231 241 249 263 280 288 285 289 288 286 290 293 291 294 291 291 299 297 296 287 288 300 282 284 289 275 257 251 214 201 229 242 249 269 262 253 254 257 261
197 215 230 241 248 260 291 332 328 323 311 305 305 305 306 307 306 294 300 302 299 295 297 295 293 291 270 297 267 242 223 239 251 239 235 260 234 264 272 274 267 260 255
126 114 94 82 68 11 5 358 23 341 308 324 328 318 313 315 317 318 332 333 328 320 308 301 299 296 287 293 291 287 280 272 268 260 258 255 245 233 248 264 257 256 257
139 130 121 102 57 358 339 329 308 300 302 309 298 310 299 295 292 301 298 286 293 302 309 311 305 307 309 318 310 302 296 288 279 268 262 257 248 251 250 244 259 260 259
135 129 125 99 313 301 5 286 279 281 288 293 294 292 302 302 310 299 293 293 298 292 286 291 297 302 306 308 311 307 299 296 287 283 283 278 269 262 252 255 258 253 257
119 79 44 352 322 319 282 265 279 294 301 302 304 303 304 311 295 294 296 298 299 300 297 292 290 296 299 303 302 299 298 302 310 292 285 281 286 281 270 264 267 262 258
101 56 346 341 316 309 291 285 293 299 302 305 307 328 305 292 300 300 298 306 311 315 317 314 310 306 312 301 309 297 293 291 281 280 276 267 264 263 274 272 270 262 265
344 323 311 307 307 292 298 299 303 308 311 311 329 285 276 298 300 307 315 315 317 326 318 319 315 311 309 303 300 298 297 297 301 274 284 276 275 271 257 253 267 265 274
316 313 317 323 296 300 305 312 325 353 359 332 299 297 297 295 304 308 313 323 322 327 315 315 312 311 311 316 314 308 304 301 292 287 287 286 279 275 269 265 259 250 262
329 357 22 311 303 314 322 339 346 346 332 324 320 312 333 327 329 329 329 330 325 310 305 303 299 298 301 303 302 302 303 302 304 307 311 293 303 293 290 277 268 263 260
61 77 254 297 313 359 20 12 19 33 359 10 353 342 310 318 321 325 333 337 349 344 322 309 312 316 317 306 298 299 298 299 297 297 299 295 304 299 292 287 281 275 268
184 128 3 18 8 19 28 15 13 5 337 4 359 345 334 321 319 332 336 335 339 340 346 352 344 342 348 343 346 346 328 308 301 298 303 281 294 304 297 295 289 285 273
Wind_Speed_850mb
40 39 29 33 32 26 19 21 17 23 31 24 23 30 35 37 40 43 46 45 48 47 50 49 46 47 44 45 46 45 46 46 45 49 45 48 46 42 41 41 41 39 39
41 40 39 40 42 31 28 27 28 23 32 34 35 36 39 39 41 43 44 41 43 47 49 48 42 41 45 48 50 50 50 52 49 49 49 52 52 50 49 47 45 44 42
43 43 38 33 37 36 37 38 38 25 29 39 42 44 41 42 45 45 45 41 36 44 46 49 46 39 34 41 49 52 53 51 50 46 48 53 55 57 54 52 49 49 52
43 42 43 37 30 31 31 35 37 41 40 34 37 36 36 34 36 42 37 36 52 44 44 34 29 35 41 44 43 43 45 51 54 56 47 47 49 58 58 54 43 50 58
38 53 45 44 38 39 39 37 36 39 41 41 41 44 45 46 43 36 37 46 37 39 43 54 52 49 52 53 52 48 57 58 52 50 48 58 58 67 74 60 57 49 51
45 38 50 39 35 48 51 48 51 47 47 46 38 37 38 40 35 34 38 45 35 32 46 49 56 58 61 65 77 81 70 72 72 70 73 67 57 56 56 38 34 37 40
45 44 40 40 48 44 44 37 38 39 45 41 40 46 52 55 52 61 70 68 57 53 52 63 59 52 63 60 63 54 44 48 52 56 53 49 44 49 44 40 33 44 44
52 49 48 40 37 44 38 38 49 47 48 42 39 40 45 38 40 45 53 42 44 41 43 41 47 43 53 56 49 39 55 49 53 51 51 46 47 49 44 42 41 42 46
59 56 54 46 43 49 52 41 40 42 45 39 39 36 18 21 25 39 46 50 47 42 44 43 36 30 42 51 48 58 47 45 41 31 31 30 30 35 45 31 40 41 39
65 54 53 48 47 52 34 34 38 37 38 43 38 44 46 46 43 37 49 35 35 43 46 42 37 37 49 53 58 62 53 57 50 30 22 8 17 8 15 21 20 27 27
45 48 46 39 43 37 35 31 33 34 34 38 39 34 43 47 47 48 46 47 39 25 26 35 37 42 49 53 58 60 56 42 31 36 31 6 10 13 12 17 25 27 26
37 35 38 30 33 33 32 31 31 33 31 35 38 40 44 45 49 41 49 49 47 51 42 42 48 52 61 60 45 46 39 37 39 36 37 19 22 13 22 22 18 18 19
26 25 26 21 19 22 24 28 30 33 31 36 35 34 38 41 41 39 40 41 45 49 54 44 55 52 39 34 32 24 35 43 45 45 33 18 25 28 26 21 18 14 15
22 29 29 25 26 28 26 26 22 24 28 30 34 40 45 44 48 53 48 46 50 48 49 45 39 41 41 36 32 29 32 31 23 17 17 15 20 20 21 22 25 26 25
31 30 26 30 28 28 28 26 24 23 29 33 35 39 37 39 41 35 34 35 34 32 41 42 37 32 42 44 28 26 29 29 33 24 16 15 18 25 28 32 31 33 33
18 19 23 21 13 8 5 5 9 16 20 21 23 25 28 32 32 33 34 35 31 34 38 46 47 44 30 28 38 21 21 29 35 34 38 44 50 44 44 41 39 41 41
17 11 20 16 11 6 7 7 9 9 13 17 18 21 22 23 25 27 28 27 29 31 38 47 46 49 55 59 59 59 42 40 44 53 46 50 53 74 64 52 54 52 53
28 26 18 12 7 11 18 15 13 14 14 18 22 23 31 31 31 32 23 28 25 23 32 44 49 51 55 46 39 38 42 48 59 62 63 57 55 59 72 79 72 69 66
24 16 9 3 3 5 4 17 29 28 27 26 25 28 34 35 33 33 38 39 39 40 39 40 43 41 43 45 49 52 52 48 47 48 46 50 63 72 75 72 75 77 81
13 5 5 6 11 10 16 26 35 34 35 35 31 29 31 32 35 35 41 50 50 46 44 44 45 43 42 42 44 42 38 30 36 42 47 48 43 44 51 56 63 74 74
7 4 6 7 12 19 21 30 39 46 49 43 32 19 24 31 38 40 38 38 42 43 41 36 37 37 36 42 44 49 55 56 58 44 37 34 28 29 38 49 58 64 70
6 7 11 12 13 29 34 42 48 51 43 28 14 21 19 26 23 25 30 36 37 35 38 38 40 43 47 47 53 60 64 68 76 75 74 74 63 65 58 48 34 33 28
16 18 18 18 23 29 36 42 39 18 18 16 16 22 23 37 38 33 33 37 33 24 30 36 41 45 52 51 50 53 57 62 69 74 74 86 80 88 87 83 74 60 48
15 14 14 8 18 23 29 28 17 13 18 21 22 26 22 23 29 36 47 44 31 28 24 32 36 43 46 48 49 51 54 58 63 63 52 62 61 66 60 64 78 89 77
17 10 5 8 16 18 15 15 18 24 27 23 24 19 19 25 34 43 41 33 23 17 20 28 29 31 34 39 44 51 55 60 71 73 64 60 58 57 59 57 46 42 47
8 3 6 10 14 16 18 20 22 19 15 11 18 22 21 25 36 39 32 33 30 29 30 29 30 30 35 38 40 44 47 54 60 66 39 31 43 50 55 48 44 39 40
Wind_Direction_850mb
191 211 220 222 257 269 296 268 289 268 275 289 285 265 265 262 260 256 257 265 274 289 287 287 294 278 270 266 266 268 274 276 274 266 267 272 272 270 266 264 261 260 258
194 216 221 219 215 232 255 270 264 260 254 264 265 274 275 272 266 264 263 263 267 277 281 285 290 297 276 272 270 271 271 273 273 268 265 269 272 274 269 262 260 255 255
201 220 227 233 222 227 224 236 234 238 241 248 255 259 262 262 271 274 280 281 272 278 279 284 272 283 286 282 274 273 273 272 271 269 269 273 276 273 268 261 260 260 259
212 221 219 227 236 230 238 246 249 251 258 265 266 264 264 272 275 281 285 266 279 286 279 290 289 280 277 276 278 279 278 276 272 267 257 273 277 273 268 263 269 264 264
237 212 224 222 219 233 226 225 228 235 241 245 254 261 270 275 282 279 289 282 261 275 275 286 281 274 272 271 274 278 285 273 271 268 259 279 271 282 268 264 280 271 262
245 242 221 217 232 243 240 242 242 241 253 267 269 270 267 266 270 261 261 262 271 264 284 267 270 278 278 279 282 282 280 275 273 268 271 270 267 266 265 257 265 263 261
242 238 239 227 230 243 251 249 258 257 257 260 270 268 266 266 265 266 263 274 285 299 272 271 280 290 291 294 293 293 288 287 278 271 267 257 254 264 246 267 262 267 261
236 233 237 241 240 245 250 246 241 250 260 265 258 267 281 282 276 265 274 286 292 292 294 293 282 295 296 299 288 280 285 283 286 271 259 254 263 261 263 262 260 252 254
239 240 246 243 233 240 232 239 251 258 262 259 253 260 264 262 283 288 289 289 285 290 261 265 264 274 279 277 283 292 276 281 275 270 273 270 263 260 257 249 262 257 253
236 247 255 250 238 253 250 247 250 255 256 261 263 258 267 268 273 290 294 298 285 296 280 297 279 274 273 269 276 290 277 289 275 245 233 240 270 262 244 240 252 252 249
240 252 247 242 239 246 250 252 255 256 262 267 267 273 281 279 277 271 280 290 297 288 294 284 290 294 291 287 288 292 285 273 229 219 209 171 264 297 306 278 252 245 243
223 228 233 240 240 243 254 249 257 263 271 266 265 268 273 278 280 288 281 280 285 284 281 286 296 294 293 298 307 293 278 256 238 235 226 213 248 265 277 275 248 235 229
220 218 218 229 244 251 255 255 263 268 277 272 276 279 281 278 280 285 292 289 282 285 286 280 286 286 294 307 305 300 266 262 253 259 257 233 239 257 266 251 247 249 252
201 202 208 213 233 238 242 252 255 257 263 272 279 282 282 283 283 283 293 299 297 291 290 287 303 291 295 292 293 302 275 255 230 215 219 237 245 260 256 262 254 248 254
174 185 210 234 231 241 249 263 280 288 285 289 288 286 290 293 291 294 291 291 299 297 296 287 288 300 282 284 289 275 257 251 214 201 229 242 249 269 262 253 254 257 261
197 215 230 241 248 260 291 332 328 323 311 305 305 305 306 307 306 294 300 302 299 295 297 295 293 291 270 297 267 242 223 239 251 239 235 260 234 264 272 274 267 260 255
126 114 94 82 68 11 5 358 23 341 308 324 328 318 313 315 317 318 332 333 328 320 308 301 299 296 287 293 291 287 280 272 268 260 258 255 245 233 248 264 257 256 257
139 130 121 102 57 358 339 329 308 300 302 309 298 310 299 295 292 301 298 286 293 302 309 311 305 307 309 318 310 302 296 288 279 268 262 257 248 251 250 244 259 260 259
135 129 125 99 313 301 5 286 279 281 288 293 294 292 302 302 310 299 293 293 298 292 286 291 297 302 306 308 311 307 299 296 287 283 283 278 269 262 252 255 258 253 257
119 79 44 352 322 319 282 265 279 294 301 302 304 303 304 311 295 294 296 298 299 300 297 292 290 296 299 303 302 299 298 302 310 292 285 281 286 281 270 264 267 262 258
101 56 346 341 316 309 291 285 293 299 302 305 307 328 305 292 300 300 298 306 311 315 317 314 310 306 312 301 309 297 293 291 281 280 276 267 264 263 274 272 270 262 265
344 323 311 307 307 292 298 299 303 308 311 311 329 285 276 298 300 307 315 315 317 326 318 319 315 311 309 303 300 298 297 297 301 274 284 276 275 271 257 253 267 265 274
316 313 317 323 296 300 305 312 325 353 359 332 299 297 297 295 304 308 313 323 322 327 315 315 312 311 311 316 314 308 304 301 292 287 287 286 279 275 269 265 259 250 262
329 357 22 311 303 314 322 339 346 346 332 324 320 312 333 327 329 329 329 330 325 310 305 303 299 298 301 303 302 302 303 302 304 307 311 293 303 293 290 277 268 263 260
61 77 254 297 313 359 20 12 19 33 359 10 353 342 310 318 321 325 333 337 349 344 322 309 312 316 317 306 298 299 298 299 297 297 299 295 304 299 292 287 281 275 268
184 128 3 18 8 19 28 15 13 5 337 4 359 345 334 321 319 332 336 335 339 340 346 352 344 342 348 343 346 346 328 308 301 298 303 281 294 304 297 295 289 285 273